Погода в Шайдомах

Россия / Республика Карелия     62°42′19″N   34°12′11″E
темп.,
°C
ветер,
м/с
пор.,
м/с
влажн.,
%
обл.,
%
осадки,
мм/ч
давл.,
гПа
погр.,
м
21 января, пт
пт2100:00−1ююв2799100 2.5 987365
03:00−1ю2799100 4.6 988385
06:00−1ю2698100 0.8 990316
09:00−2ююз2698100 1.7 993300
12:00−3зюз1498100 0.5 996268
15:00−6ссз1298100 0.6 99934
18:00−9с2696100 0.0 1002100
21:00−8с3895100 0.0 1005222
22 января, сб
сб2200:00−7ссв3109497 0.1 1007336
03:00−7с3119497 0.2 1009372
06:00−6ссв4109592 0.2 1010359
09:00−5св3896100 1.0 1012403
12:00−6всв269691 0.4 1015423
15:00−11св119870 0.5 101710
18:00−18ссв1110085 0.0 10209
21:00−21св1110080 0.0 10229
23 января, вс
вс2300:00−22с1110096 0.0 102410
03:00−23всв0010097 0.0 10269
06:00−24ю1110088 0.0 10269
09:00−24юз1110090 0.0 10299
12:00−19юз1410095 0.0 102981
15:00−16ю259986 0.0 1030101
18:00−15ююз399774 0.0 1030172
21:00−14ююз3109898 0.0 1030223
24 января, пн
пн2400:00−12ююз4139678 0.0 1029338
03:00−10ююз4149497 0.0 1028445
06:00−9ююз51592100 0.1 1026502
09:00−9ююз5169199 0.1 1025515
12:00−9ююз5179199 0.0 1023542
15:00−8ююз61887100 0.0 1021627
18:00−7ююз61885100 0.0 1019758
21:00−7ююз61791100 0.1 1017744
25 января, вт
вт2500:00−7ююз61592100 0.3 1016737
03:00−7ююз51395100 1.7 1014645
06:00−7ююз41195100 0.9 1014512
09:00−7ююз3995100 1.1 1014361
12:00−6ююз2796100 0.2 1015283
15:00−6ююз1398100 0.3 101689
18:00−8сз259899 0.1 101882
21:00−13ссз27956 0.1 1021108